Welcome to our new website - Welkom op onze vernieuwde website - Bienvenue sur notre nouveau site web - Willkommen auf unserer neuen Website
Check our progress frequently. Prüfen Sie unsere Fortschritte regelmäßig. Consultez notre progression fréquemment. Komt u straks nog eens terug
Extreme hitte van: 23-07-2019 04:59 tot: 24-07-2019 23:59 waarschuwing voor: Extreme hitte niveau: Oranje info button

Regen radar Meer informatie rain snow radar


Bezoek ook deze websites:

Template documentation
and downloads

And another site


U vindt ons ook hier:

UK Metoffice

WeatherCloud

Weather Underground

AWEKAS


Select another period ( hide this area )

Eenheden Periode Custom range Directly to
Metrisch Engels Beide
Dagelijkse Wekelijkse Maandelijkse Jaarlijkse
use both date-selectors for a custom range
previous Dag
With this date

WeatherUnderground graphs for this period ( click here )


Warning: Division by zero in /customers/a/f/b/meteoassenede.be/httpd.www/weather28/wu/WU-History4.php on line 835
Dagelijkse Samenvatting Dinsdag 23 juli 2019
Tijd Temp. ( °C ) Dew pt. ( °C ) Wind ( km/h ) van Windvlaag ( km/h ) Luchtdruk ( hPa ) Humid.( % ) Rainrate ( cm ) Zonneschijn ( W/m2 )
Hoog18,6 16,4 0,0 ( 0/0 ) 3,2 1021,9 94 - 0
Gemiddeld16,9 15,5 0,0 Kalm #67/67 0,1 1021,5 91 - NAN #0/67
Laag15,8 14,7 -   0,0 1020,9 85 -  
Dagelijkse Tabular details for Dinsdag 23 juli 2019
Tijd Temp. ( °C ) Dew pt. ( °C ) Wind ( km/h ) van Windvlaag ( km/h ) Luchtdruk ( hPa ) Humid.( % ) Rainrate ( cm ) Zonneschijn ( W/m2 )
00:04 18,6 16,0   Kalm   1021,9 85 - -
00:09 18,6 16,2   Kalm   1021,9 86 - -
00:14 18,5 16,3   Kalm   1021,9 87 - -
00:18 18,4 16,2   Kalm   1021,9 87 - -
00:24 18,3 16,1   Kalm   1021,9 87 - -
00:29 18,3 16,3   Kalm   1021,9 88 - -
00:34 18,2 16,2   Kalm   1021,9 88 - -
00:39 18,2 16,4   Kalm   1021,9 89 - -
00:44 18,1 16,3   Kalm   1021,9 89 - -
00:49 18,1 16,3   Kalm   1021,9 89 - -
00:54 18,0 16,2   Kalm   1021,9 89 - -
00:59 17,9 16,1   Kalm   1021,9 89 - -
01:04 17,8 16,0   Kalm   1021,9 89 - -
01:09 17,8 16,1   Kalm   1021,9 90 - -
01:14 17,8 16,1   Kalm   1021,6 90 - -
01:18 17,7 16,0   Kalm   1021,9 90 - -
01:23 17,7 16,0   Kalm   1021,9 90 - -
01:29 17,6 15,9   Kalm   1021,9 90 - -
01:34 17,5 15,8   Kalm   1021,9 90 - -
01:39 17,4 15,9   Kalm   1021,6 91 - -
01:44 17,3 15,6   Kalm   1021,6 90 - -
01:49 17,3 15,8   Kalm   1021,6 91 - -
01:54 17,2 15,7   Kalm   1021,6 91 - -
01:59 17,1 15,6   Kalm   1021,6 91 - -
02:04 17,1 15,6   Kalm   1021,6 91 - -
02:09 17,0 15,5   Kalm   1021,6 91 - -
02:14 17,0 15,7   Kalm   1021,6 92 - -
02:19 17,0 15,7   Kalm   1021,6 92 - -
02:24 16,9 15,6   Kalm   1021,2 92 - -
02:29 16,9 15,6   Kalm   1021,2 92 - -
02:34 16,8 15,5   Kalm   1021,2 92 - -
02:39 16,7 15,4   Kalm 3,2 1021,2 92 - -
02:43 16,7 15,4   Kalm 1,6 1021,2 92 - -
02:49 16,6 15,3   Kalm   1021,6 92 - -
02:54 16,5 15,2   Kalm   1021,6 92 - -
02:59 16,4 15,3   Kalm   1021,6 93 - -
03:04 16,6 15,5   Kalm   1021,6 93 - -
03:09 16,6 15,5   Kalm   1021,6 93 - -
03:14 16,7 15,6   Kalm   1021,6 93 - -
03:19 16,7 15,6   Kalm   1021,2 93 - -
03:24 16,7 15,6   Kalm   1021,2 93 - -
03:29 16,6 15,5   Kalm   1021,2 93 - -
03:34 16,6 15,5   Kalm   1021,2 93 - -
03:39 16,5 15,4   Kalm   1021,2 93 - -
03:44 16,4 15,3   Kalm   1021,2 93 - -
03:49 16,4 15,3   Kalm   1021,2 93 - -
03:54 16,3 15,2   Kalm   1021,2 93 - -
03:59 16,4 15,3   Kalm   1021,2 93 - -
04:04 16,4 15,3   Kalm   1021,2 93 - -
04:09 16,3 15,2   Kalm   1021,2 93 - -
04:14 16,3 15,2   Kalm   1021,2 93 - -
04:19 16,2 15,1   Kalm   1021,2 93 - -
04:24 16,2 15,1   Kalm   1021,2 93 - -
04:29 16,2 15,1   Kalm   1021,2 93 - -
04:34 16,2 15,1   Kalm   1021,2 93 - -
04:39 16,1 15,0   Kalm   1021,2 93 - -
04:44 16,1 15,0   Kalm   1021,2 93 - -
04:49 16,0 14,9   Kalm   1021,2 93 - -
04:54 15,9 14,8   Kalm   1021,2 93 - -
04:59 15,9 14,8   Kalm   1021,2 93 - -
05:04 15,9 14,9   Kalm   1021,2 94 - -
05:09 15,9 14,8   Kalm   1021,2 93 - -
05:14 15,9 14,8   Kalm   1021,2 93 - -
05:19 15,8 14,7   Kalm   1021,2 93 - -
05:23 15,8 14,7   Kalm   1021,2 93 - -
05:29 15,8 14,8   Kalm   1021,2 94 - -
05:34 15,8 14,7   Kalm   1020,9 93 - -
Dagelijkse Samenvatting Dinsdag 23 juli 2019
Tijd Temp. ( °C ) Dew pt. ( °C ) Wind ( km/h ) van Windvlaag ( km/h ) Luchtdruk ( hPa ) Humid.( % ) Rainrate ( cm ) Zonneschijn ( W/m2 )
Hoog18,6 16,4 0,0 ( 0/0 ) 3,2 1021,9 94 - 0
Gemiddeld16,9 15,5 0,0 Kalm #67/67 0,1 1021,5 91 - NAN #0/67
Laag15,8 14,7 -   0,0 1020,9 85 -  
Dagelijkse Tabular details for Dinsdag 23 juli 2019
Tijd Temp. ( °C ) Dew pt. ( °C ) Wind ( km/h ) van Windvlaag ( km/h ) Luchtdruk ( hPa ) Humid.( % ) Rainrate ( cm ) Zonneschijn ( W/m2 )
00:04 18,6 16,0   Kalm   1021,9 85 - -
00:09 18,6 16,2   Kalm   1021,9 86 - -
00:14 18,5 16,3   Kalm   1021,9 87 - -
00:18 18,4 16,2   Kalm   1021,9 87 - -
00:24 18,3 16,1   Kalm   1021,9 87 - -
00:29 18,3 16,3   Kalm   1021,9 88 - -
00:34 18,2 16,2   Kalm   1021,9 88 - -
00:39 18,2 16,4   Kalm   1021,9 89 - -
00:44 18,1 16,3   Kalm   1021,9 89 - -
00:49 18,1 16,3   Kalm   1021,9 89 - -
00:54 18,0 16,2   Kalm   1021,9 89 - -
00:59 17,9 16,1   Kalm   1021,9 89 - -
01:04 17,8 16,0   Kalm   1021,9 89 - -
01:09 17,8 16,1   Kalm   1021,9 90 - -
01:14 17,8 16,1   Kalm   1021,6 90 - -
01:18 17,7 16,0   Kalm   1021,9 90 - -
01:23 17,7 16,0   Kalm   1021,9 90 - -
01:29 17,6 15,9   Kalm   1021,9 90 - -
01:34 17,5 15,8   Kalm   1021,9 90 - -
01:39 17,4 15,9   Kalm   1021,6 91 - -
01:44 17,3 15,6   Kalm   1021,6 90 - -
01:49 17,3 15,8   Kalm   1021,6 91 - -
01:54 17,2 15,7   Kalm   1021,6 91 - -
01:59 17,1 15,6   Kalm   1021,6 91 - -
02:04 17,1 15,6   Kalm   1021,6 91 - -
02:09 17,0 15,5   Kalm   1021,6 91 - -
02:14 17,0 15,7   Kalm   1021,6 92 - -
02:19 17,0 15,7   Kalm   1021,6 92 - -
02:24 16,9 15,6   Kalm   1021,2 92 - -
02:29 16,9 15,6   Kalm   1021,2 92 - -
02:34 16,8 15,5   Kalm   1021,2 92 - -
02:39 16,7 15,4   Kalm 3,2 1021,2 92 - -
02:43 16,7 15,4   Kalm 1,6 1021,2 92 - -
02:49 16,6 15,3   Kalm   1021,6 92 - -
02:54 16,5 15,2   Kalm   1021,6 92 - -
02:59 16,4 15,3   Kalm   1021,6 93 - -
03:04 16,6 15,5   Kalm   1021,6 93 - -
03:09 16,6 15,5   Kalm   1021,6 93 - -
03:14 16,7 15,6   Kalm   1021,6 93 - -
03:19 16,7 15,6   Kalm   1021,2 93 - -
03:24 16,7 15,6   Kalm   1021,2 93 - -
03:29 16,6 15,5   Kalm   1021,2 93 - -
03:34 16,6 15,5   Kalm   1021,2 93 - -
03:39 16,5 15,4   Kalm   1021,2 93 - -
03:44 16,4 15,3   Kalm   1021,2 93 - -
03:49 16,4 15,3   Kalm   1021,2 93 - -
03:54 16,3 15,2   Kalm   1021,2 93 - -
03:59 16,4 15,3   Kalm   1021,2 93 - -
04:04 16,4 15,3   Kalm   1021,2 93 - -
04:09 16,3 15,2   Kalm   1021,2 93 - -
04:14 16,3 15,2   Kalm   1021,2 93 - -
04:19 16,2 15,1   Kalm   1021,2 93 - -
04:24 16,2 15,1   Kalm   1021,2 93 - -
04:29 16,2 15,1   Kalm   1021,2 93 - -
04:34 16,2 15,1   Kalm   1021,2 93 - -
04:39 16,1 15,0   Kalm   1021,2 93 - -
04:44 16,1 15,0   Kalm   1021,2 93 - -
04:49 16,0 14,9   Kalm   1021,2 93 - -
04:54 15,9 14,8   Kalm   1021,2 93 - -
04:59 15,9 14,8   Kalm   1021,2 93 - -
05:04 15,9 14,9   Kalm   1021,2 94 - -
05:09 15,9 14,8   Kalm   1021,2 93 - -
05:14 15,9 14,8   Kalm   1021,2 93 - -
05:19 15,8 14,7   Kalm   1021,2 93 - -
05:23 15,8 14,7   Kalm   1021,2 93 - -
05:29 15,8 14,8   Kalm   1021,2 94 - -
05:34 15,8 14,7   Kalm   1020,9 93 - -

Download your copy of this data-set  here

Our weather-data as stored at Weather Underground. Script ontwikkeld door Jim McMurry. Aangepast voor de template door Leuven-Template.eu

Apparatuur in gebruik:

Weerstation
Davis Vantage Pro2

Weerprogramma
Meteobridge

Weercomputer
TP-Link TL-MR3020

Webleverancier
One.com

Davis Vantage Pro2

Meteobridge

TP-Link TL-MR3020

One.com